Location: Barcelona
(41.3830°N, 2.1830°E)
Time: 16:01:11
(UTC+02:00)

ISS - Pass Details

Date: 11 September 2019
Orbit: 411 x 421 km, 51.6° (Epoch: 18 September)

Event Time Altitude Azimuth Distance (km) Brightness Sun altitude
Exits shadow 05:30:03 15° 340° (NNW) 1,247 -1.3 -21.7°
Maximum altitude 05:31:40 20° 17° (NNE) 1,044 -1.3 -21.4°
Drops below altitude 10° 05:34:11 10° 66° (ENE) 1,491 0.2 -21.0°
Sets 05:36:41 0° 84° (E) 2,355 1.3 -20.6°
